Meridian NAS, MS

12:39 AM CST on January 24, 2018 (GMT -0600)
Meridian Naval Air Station

Weather History for KNMM - October, 2012

Change the Weather History Date:

Tuesday, October 23, 2012

  Actual Average Record
Temperature  
Mean Temperature 83 °F -  
Max Temperature 82 °F 74 °F 86 °F (2015)
Min Temperature 48 °F 51 °F 34 °F (1997)
Cooling Degree Days 18    
Growing Degree Days 33 (Base 50)    
Moisture  
Dew Point 55 °F    
Average Humidity 77    
Maximum Humidity 93    
Minimum Humidity 43    
Precipitation  
Precipitation 0.00 in - - ()
Sea Level Pressure  
Sea Level Pressure 30.12 in    
Wind  
Wind Speed 1 mph (SE)    
Max Wind Speed 6 mph    
Max Gust Speed -    
Visibility 10 miles    
Events      
Averages and records for this station are not official NWS values.
T = Trace of Precipitation, MM = Missing Value Source: NWS Daily Summary

Daily Weather History Graph

Daily Weather History Graph

Search for Another Location

Airport or City:

Trip Planner

Search our weather history database for the weather conditions in past years. The results will help you decide how hot, cold, wet, or windy it might be!

Date:

Astronomy

Oct. 23, 2012 Rise Set
Actual Time 7:04 AM CDT 6:11 PM CDT
Civil Twilight 6:39 AM CDT 6:36 PM CDT
Nautical Twilight 6:10 AM CDT 7:05 PM CDT
Astronomical Twilight 5:42 AM CDT 7:34 PM CDT
Moon 2:38 PM CDT (10/23) 1:15 AM CDT (10/23)
Length of Visible Light 11h 57m
Length of Day
11h 07m
Waxing Gibbous, 67% of the Moon is Illuminated
Oct 23
Waxing Gibbous
Oct 29
Full
Nov 6
Last Quarter
Nov 13
New
Nov 20
First Quarter

Hourly Weather History & Observations

Time (CDT) Temp. Heat Index Dew Point Humidity Pressure Visibility Wind Dir Wind Speed Gust Speed Precip Events Conditions
12:56 AM 54.0 °F - 51.1 °F 90% 30.12 in 10.0 mi Calm Calm - N/A   Clear
1:56 AM 53.1 °F - 51.1 °F 93% 30.12 in 10.0 mi Calm Calm - N/A   Clear
2:56 AM 51.1 °F - 48.9 °F 92% 30.12 in 10.0 mi Calm Calm - N/A   Clear
3:56 AM 50.0 °F - 48.0 °F 93% 30.10 in 10.0 mi Calm Calm - N/A   Clear
4:56 AM 48.9 °F - 46.0 °F 90% 30.12 in 10.0 mi Calm Calm - N/A   Clear
5:56 AM 48.0 °F - 46.0 °F 93% 30.13 in 10.0 mi Calm Calm - N/A   Clear
6:56 AM 118.4 °F 300.7 °F 113.0 °F 85% 30.15 in 10.0 mi Calm Calm - N/A   Scattered Clouds
7:48 AM 48.2 °F - 46.4 °F 93% 30.15 in 10.0 mi Calm Calm - N/A   Partly Cloudy
7:56 AM 50.0 °F - 46.9 °F 89% 30.18 in 10.0 mi Calm Calm - N/A   Scattered Clouds
8:56 AM 57.0 °F - 54.0 °F 89% 30.20 in 10.0 mi Calm Calm - N/A   Scattered Clouds
9:56 AM 64.9 °F - 57.0 °F 75% 30.19 in 10.0 mi Calm Calm - N/A   Scattered Clouds
10:56 AM 71.1 °F - 57.9 °F 63% 30.18 in 10.0 mi SSE 4.6 mph - N/A   Partly Cloudy
11:56 AM 75.9 °F - 57.9 °F 54% 30.16 in 10.0 mi SSE 5.8 mph - N/A   Partly Cloudy
12:56 PM 78.1 °F - 57.9 °F 50% 30.13 in 10.0 mi Variable 3.5 mph - N/A   Scattered Clouds
1:56 PM 78.1 °F - 57.9 °F 50% 30.10 in 10.0 mi ESE 4.6 mph - N/A   Scattered Clouds
2:56 PM 81.0 °F 81.0 °F 57.0 °F 44% 30.09 in 10.0 mi Variable 3.5 mph - N/A   Mostly Cloudy
3:56 PM 80.1 °F 80.4 °F 57.0 °F 45% 30.09 in 10.0 mi SSE 4.6 mph - N/A   Scattered Clouds
4:56 PM 80.1 °F 80.2 °F 55.9 °F 43% 30.08 in 10.0 mi Calm Calm - N/A   Scattered Clouds
5:56 PM 72.0 °F - 62.1 °F 71% 30.09 in 10.0 mi Calm Calm - N/A   Scattered Clouds
6:56 PM 68.0 °F - 60.1 °F 76% 30.09 in 10.0 mi Calm Calm - N/A   Scattered Clouds
7:56 PM 64.9 °F - 60.1 °F 84% 30.10 in 10.0 mi Calm Calm - N/A   Partly Cloudy
8:56 PM 64.0 °F - 60.1 °F 87% 30.11 in 10.0 mi Calm Calm - N/A   Clear
9:56 PM 63.0 °F - 57.0 °F 81% 30.11 in 10.0 mi SE 4.6 mph - N/A   Clear
10:56 PM 61.0 °F - 57.0 °F 87% 30.12 in 10.0 mi ESE 3.5 mph - N/A   Clear
11:36 PM 59.0 °F - 55.4 °F 88% 30.08 in 2.5 mi Calm Calm - N/A   Clear
11:56 PM 59.0 °F - 55.0 °F 87% 30.11 in 10.0 mi Calm Calm - N/A   Clear